Time,TemperatureF,DewpointF,PressureIn,WindDirection,WindDirectionDegrees,WindSpeedMPH,WindSpeedGustMPH,Humidity,HourlyPrecipIn,Conditions,Clouds,dailyrainin,SoftwareType,DateUTC
2013-04-06 00:22:00,56.3,45.5,29.81,SSW,202,5.8,-999.0,67,-99.99,,,0.00,Acu-Link.com,2013-04-06 05:22:00,
2013-04-06 00:37:00,56.5,45.3,29.80,South,180,6.8,-999.0,66,-99.99,,,0.00,Acu-Link.com,2013-04-06 05:37:00,
2013-04-06 00:52:00,57.6,45.1,29.81,SSE,157,9.9,-999.0,63,-99.99,,,0.00,Acu-Link.com,2013-04-06 05:52:00,
2013-04-06 01:07:00,57.6,45.1,29.81,SSW,202,7.3,-999.0,63,-99.99,,,0.00,Acu-Link.com,2013-04-06 06:07:00,
2013-04-06 01:22:00,58.1,44.7,29.80,South,180,9.9,-999.0,61,-99.99,,,0.00,Acu-Link.com,2013-04-06 06:22:00,
2013-04-06 01:38:00,57.9,44.5,29.80,SSW,202,10.9,-999.0,61,-99.99,,,0.00,Acu-Link.com,2013-04-06 06:38:00,
2013-04-06 01:53:00,57.9,43.7,29.79,South,180,9.4,-999.0,59,-99.99,,,0.00,Acu-Link.com,2013-04-06 06:53:00,
2013-04-06 02:08:00,57.9,43.2,29.78,South,180,14.0,-999.0,58,-99.99,,,0.00,Acu-Link.com,2013-04-06 07:08:00,
2013-04-06 02:23:00,57.7,43.0,29.78,SSE,157,13.0,-999.0,58,-99.99,,,0.00,Acu-Link.com,2013-04-06 07:23:00,
2013-04-06 02:38:00,57.6,42.9,29.77,South,180,13.0,-999.0,58,-99.99,,,0.00,Acu-Link.com,2013-04-06 07:38:00,
2013-04-06 02:53:00,57.2,42.6,29.76,South,180,14.5,-999.0,58,-99.99,,,0.00,Acu-Link.com,2013-04-06 07:53:00,
2013-04-06 03:11:00,56.8,42.6,29.76,SSE,157,11.9,-999.0,59,-99.99,,,0.00,Acu-Link.com,2013-04-06 08:11:00,
2013-04-06 03:26:00,56.8,42.2,29.75,South,180,13.5,-999.0,58,-99.99,,,0.00,Acu-Link.com,2013-04-06 08:26:00,
2013-04-06 04:12:00,55.9,41.3,29.74,South,180,8.9,-999.0,58,-99.99,,,0.00,Acu-Link.com,2013-04-06 09:12:00,
2013-04-06 04:27:00,55.8,41.2,29.73,South,180,13.5,-999.0,58,-99.99,,,0.00,Acu-Link.com,2013-04-06 09:27:00,
2013-04-06 04:42:00,55.6,41.5,29.73,SSE,157,13.0,-999.0,59,-99.99,,,0.00,Acu-Link.com,2013-04-06 09:42:00,
2013-04-06 04:57:00,55.4,41.7,29.72,South,180,11.4,-999.0,60,-99.99,,,0.00,Acu-Link.com,2013-04-06 09:57:00,
2013-04-06 05:12:00,55.4,41.7,29.71,SSE,157,16.1,-999.0,60,-99.99,,,0.00,Acu-Link.com,2013-04-06 10:12:00,
2013-04-06 05:27:00,55.4,41.7,29.71,South,180,14.5,-999.0,60,-99.99,,,0.00,Acu-Link.com,2013-04-06 10:27:00,
2013-04-06 05:43:00,55.8,42.1,29.71,South,180,11.4,-999.0,60,-99.99,,,0.00,Acu-Link.com,2013-04-06 10:43:00,
2013-04-06 06:13:00,56.5,43.2,29.70,South,180,13.0,-999.0,61,-99.99,,,0.00,Acu-Link.com,2013-04-06 11:13:00,
2013-04-06 06:28:00,56.7,43.0,29.71,SSE,157,13.5,-999.0,60,-99.99,,,0.00,Acu-Link.com,2013-04-06 11:28:00,
2013-04-06 06:43:00,56.7,43.4,29.70,SSW,202,18.6,-999.0,61,-99.99,,,0.00,Acu-Link.com,2013-04-06 11:43:00,
2013-04-06 06:58:00,57.4,44.5,29.68,SSW,202,18.1,-999.0,62,-99.99,,,0.00,Acu-Link.com,2013-04-06 11:58:00,
2013-04-06 07:13:00,57.2,44.3,29.69,SSW,202,10.4,-999.0,62,-99.99,,,0.00,Acu-Link.com,2013-04-06 12:13:00,
2013-04-06 07:29:00,57.6,44.7,29.69,South,180,14.0,-999.0,62,-99.99,,,0.00,Acu-Link.com,2013-04-06 12:29:00,
2013-04-06 07:44:00,57.0,44.5,29.72,SSW,202,13.5,-999.0,63,-99.99,,,0.00,Acu-Link.com,2013-04-06 12:44:00,
2013-04-06 07:59:00,57.4,45.3,29.69,SSW,202,16.1,-999.0,64,-99.99,,,0.00,Acu-Link.com,2013-04-06 12:59:00,
2013-04-06 08:14:00,57.6,45.5,29.68,SSE,157,17.1,-999.0,64,-99.99,,,0.00,Acu-Link.com,2013-04-06 13:14:00,
2013-04-06 08:29:00,57.2,45.1,29.67,South,180,25.3,-999.0,64,-99.99,,,0.00,Acu-Link.com,2013-04-06 13:29:00,
2013-04-06 08:44:00,57.4,45.7,29.68,South,180,16.1,-999.0,65,-99.99,,,0.00,Acu-Link.com,2013-04-06 13:44:00,
2013-04-06 08:59:00,57.7,46.0,29.66,South,180,22.7,-999.0,65,-99.99,,,0.00,Acu-Link.com,2013-04-06 13:59:00,
2013-04-06 09:15:00,57.9,46.6,29.67,South,180,19.1,-999.0,66,-99.99,,,0.00,Acu-Link.com,2013-04-06 14:15:00,
2013-04-06 09:30:00,58.6,47.3,29.65,WSW,247,19.1,-999.0,66,-99.99,,,0.00,Acu-Link.com,2013-04-06 14:30:00,
2013-04-06 10:15:00,60.4,48.6,29.65,South,180,15.0,-999.0,65,-99.99,,,0.00,Acu-Link.com,2013-04-06 15:15:00,
2013-04-06 10:30:00,60.8,48.5,29.64,South,180,22.2,-999.0,64,-99.99,,,0.00,Acu-Link.com,2013-04-06 15:30:00,
2013-04-06 11:00:00,64.2,50.5,29.64,SW,225,10.4,-999.0,61,-99.99,,,0.00,Acu-Link.com,2013-04-06 16:00:00,
2013-04-06 11:15:00,63.1,49.9,29.65,South,180,20.7,-999.0,62,-99.99,,,0.00,Acu-Link.com,2013-04-06 16:15:00,
2013-04-06 11:31:00,66.7,51.4,29.64,SSW,202,17.6,-999.0,58,-99.99,,,0.00,Acu-Link.com,2013-04-06 16:31:00,
2013-04-06 12:31:00,67.6,52.8,29.62,South,180,19.1,-999.0,59,-99.99,,,0.00,Acu-Link.com,2013-04-06 17:31:00,
2013-04-06 12:46:00,66.9,52.6,29.61,South,180,15.5,-999.0,60,-99.99,,,0.00,Acu-Link.com,2013-04-06 17:46:00,
2013-04-06 13:01:00,67.1,53.2,29.61,SW,225,21.2,-999.0,61,-99.99,,,0.00,Acu-Link.com,2013-04-06 18:01:00,
2013-04-06 13:16:00,67.8,53.4,29.60,SSW,202,16.6,-999.0,60,-99.99,,,0.00,Acu-Link.com,2013-04-06 18:16:00,
2013-04-06 13:31:00,66.4,53.4,29.59,SW,225,15.0,-999.0,63,-99.99,,,0.00,Acu-Link.com,2013-04-06 18:31:00,
2013-04-06 13:47:00,67.1,54.1,29.60,South,180,14.5,-999.0,63,-99.99,,,0.00,Acu-Link.com,2013-04-06 18:47:00,
2013-04-06 14:02:00,67.8,54.3,29.58,SW,225,11.9,-999.0,62,-99.99,,,0.00,Acu-Link.com,2013-04-06 19:02:00,
2013-04-06 14:32:00,70.2,55.2,29.58,SSW,202,16.6,-999.0,59,-99.99,,,0.00,Acu-Link.com,2013-04-06 19:32:00,
2013-04-06 14:47:00,71.1,55.6,29.58,SSW,202,11.9,-999.0,58,-99.99,,,0.00,Acu-Link.com,2013-04-06 19:47:00,
2013-04-06 15:02:00,72.9,56.3,29.58,SW,225,13.5,-999.0,56,-99.99,,,0.00,Acu-Link.com,2013-04-06 20:02:00,
2013-04-06 15:17:00,71.1,55.6,29.56,SW,225,16.6,-999.0,58,-99.99,,,0.00,Acu-Link.com,2013-04-06 20:17:00,
2013-04-06 15:32:00,72.9,56.3,29.56,SSW,202,19.7,-999.0,56,-99.99,,,0.00,Acu-Link.com,2013-04-06 20:32:00,
2013-04-06 15:48:00,72.9,55.8,29.55,SSW,202,15.5,-999.0,55,-99.99,,,0.00,Acu-Link.com,2013-04-06 20:48:00,
2013-04-06 16:03:00,72.5,54.9,29.56,SSE,157,9.9,-999.0,54,-99.99,,,0.00,Acu-Link.com,2013-04-06 21:03:00,
2013-04-06 16:18:00,73.9,56.2,29.55,South,180,17.1,-999.0,54,-99.99,,,0.00,Acu-Link.com,2013-04-06 21:18:00,
2013-04-06 16:33:00,72.1,55.0,29.55,SSE,157,9.4,-999.0,55,-99.99,,,0.00,Acu-Link.com,2013-04-06 21:33:00,
2013-04-06 16:48:00,74.5,56.7,29.55,SSW,202,10.4,-999.0,54,-99.99,,,0.00,Acu-Link.com,2013-04-06 21:48:00,
2013-04-06 17:03:00,75.0,57.2,29.56,SSW,202,10.9,-999.0,54,-99.99,,,0.00,Acu-Link.com,2013-04-06 22:03:00,
2013-04-06 17:18:00,73.8,56.1,29.56,WSW,247,12.5,-999.0,54,-99.99,,,0.00,Acu-Link.com,2013-04-06 22:18:00,
2013-04-06 18:19:00,73.4,56.2,29.57,SSW,202,10.4,-999.0,55,-99.99,,,0.00,Acu-Link.com,2013-04-06 23:19:00,
2013-04-06 18:34:00,72.0,55.4,29.58,SSW,202,8.9,-999.0,56,-99.99,,,0.00,Acu-Link.com,2013-04-06 23:34:00,
2013-04-06 18:49:00,72.0,55.9,29.58,West,270,5.8,-999.0,57,-99.99,,,0.00,Acu-Link.com,2013-04-06 23:49:00,
2013-04-06 19:04:00,71.2,55.7,29.59,SSW,202,6.3,-999.0,58,-99.99,,,0.00,Acu-Link.com,2013-04-07 00:04:00,
2013-04-06 19:19:00,71.4,50.7,29.61,WNW,292,7.3,-999.0,48,-99.99,,,0.00,Acu-Link.com,2013-04-07 00:19:00,
2013-04-06 19:49:00,68.0,49.2,29.62,NW,315,4.7,-999.0,51,-99.99,,,0.00,Acu-Link.com,2013-04-07 00:49:00,
2013-04-06 20:05:00,66.9,48.7,29.62,NW,315,6.8,-999.0,52,-99.99,,,0.00,Acu-Link.com,2013-04-07 01:05:00,
2013-04-06 20:20:00,66.4,48.7,29.63,West,270,4.7,-999.0,53,-99.99,,,0.00,Acu-Link.com,2013-04-07 01:20:00,
2013-04-06 20:35:00,65.3,48.7,29.64,WNW,292,5.8,-999.0,55,-99.99,,,0.00,Acu-Link.com,2013-04-07 01:35:00,
2013-04-06 20:50:00,64.6,48.1,29.65,WNW,292,4.2,-999.0,55,-99.99,,,0.00,Acu-Link.com,2013-04-07 01:50:00,
2013-04-06 21:05:00,64.0,48.0,29.67,WNW,292,4.7,-999.0,56,-99.99,,,0.00,Acu-Link.com,2013-04-07 02:05:00,
2013-04-06 21:20:00,63.3,47.8,29.67,WNW,292,4.2,-999.0,57,-99.99,,,0.00,Acu-Link.com,2013-04-07 02:20:00,
2013-04-06 21:35:00,63.0,47.5,29.67,WNW,292,3.2,-999.0,57,-99.99,,,0.00,Acu-Link.com,2013-04-07 02:35:00,
2013-04-06 21:50:00,62.1,47.6,29.68,WNW,292,3.2,-999.0,59,-99.99,,,0.00,Acu-Link.com,2013-04-07 02:50:00,
2013-04-06 22:05:00,61.7,47.2,29.69,West,270,2.7,-999.0,59,-99.99,,,0.00,Acu-Link.com,2013-04-07 03:05:00,
2013-04-06 22:20:00,61.0,47.0,29.69,West,270,1.7,-999.0,60,-99.99,,,0.00,Acu-Link.com,2013-04-07 03:20:00,
2013-04-06 23:36:00,56.5,46.8,29.70,WNW,292,2.7,-999.0,70,-99.99,,,0.00,Acu-Link.com,2013-04-07 04:36:00,
2013-04-06 23:51:00,55.8,46.2,29.70,WSW,247,0.0,-999.0,70,-99.99,,,0.00,Acu-Link.com,2013-04-07 04:51:00,